Вернуться в каталог

SHIYAN 28B-02

АктивенНаукаLEO
NORAD 65226·PAYLOAD·🇨🇳 China
Это название спутника еще не подтверждено официальными источниками.

Запущен Aug 17, 2025 с Xichang Satellite Launch Center

Loading…

Ближайшие Пролёты (ближайшие 24 часа)

TLE

СвежийSource: Space-Track

Эпоха: Sep 14, 2026, 15:17 UTC

1 65226U 25177A   26257.63732837  .00000563  00000-0  50591-4 0  9992
2 65226  10.9994  70.7658 0003552 352.0771   7.9401 14.29420793 56359

Отслеживайте SHIYAN 28B-02 в реальном времени с AllMySat

Download on the App Store